127  
ASUS46 KPDT 061825  
RWRPDT  
PENDLETON REGIONAL WEATHER ROUNDUP  
NATIONAL WEATHER SERVICE PENDLETON OREGON  
1000 AM PST SAT FEB 6 2016  
 
NOTE: FAIR INDICATES FEW OR NO CLOUDS BELOW 12,000 FEET WITH NO  
SIGNIFICANT WEATHER AND/OR S TO VISIBILITY
.  
 
# INDICATES UNOFFICIAL STATION AND DATA  
 
WAZ520-061910-  
EAST SLOPES OF WASHINGTON CASCADES  
 
CITY SKY/WX TMP DP RH WIND PRES REMARKS
 
#BUMPING DAM N/A 30 N/A N/A S5 N/A  
#CLE ELUM HS N/A 39 30 70 NW7 30.30R  
#CLE ELUM 2NW N/A 37 31 79 SW7 N/A  
#CLE ELUM LAKE N/A 34 31 89 CALM 30.42R  
#CLIFFDEL 2NW N/A 34 31 89 NW3 N/A  
#GLENWOOD N/A 40 33 76 SW9 30.40R  
#MANASTASH CYN N/A 33 27 78 CALM 30.29R  
#NELSON N/A N/A N/A N/A CALM 30.33  
#NELSON 3SW N/A 36 29 75 S2 30.63R  
#NILE N/A 40 33 76 S1 29.66R  
#RONALD 2NW N/A 35 N/A N/A SW2 30.19R  
#TEANAWAY 4NE N/A 41 33 73 CALM N/A  
#TROUT LAKE 1NE N/A 41 33 73 W10 30.43R  
#TROUT LAKE 1E N/A 40 34 79 CALM 30.33S  

 
 
WAZ521-061910-  
SIMCOE HIGHLANDS  
 
CITY SKY/WX TMP DP RH WIND PRES REMARKS
 
#BICKLETON HS N/A 35 25 66 SW3 N/A  
#CENTERVILLE 1SWN/A 42 35 76 W21 30.40R WCI 33  
#GOLDENDALE N/A 41 35 79 SW9 N/A  
#GOLDENDALE 1NE N/A 43 26 51 S6 N/A  
#GOODNOE HILLS N/A 44 34 68 W12 30.32R WCI 38  
#LYLE 6NE N/A 43 37 79 SW12 30.41R WCI 37  

 
 
WAZ026-061910-  
KITTITAS VALLEY  
 
CITY SKY/WX TMP DP RH WIND PRES REMARKS
 
ELLENSBURG AP PTCLDY 41 30 65 W20G30 30.36R WCI 32  
6HR MIN TEMP: 35; 6HR MAX TEMP: 42;  
 
#ELLENSBURG CWU N/A 40 32 73 SW5 30.37R  
#ELLENSBURG 3NE N/A 39 32 76 N8 30.34R  
#ELLENSBURG N/A 42 36 79 SE2 N/A  
#KITTITAS 4N N/A 38 29 70 NW13 30.38R WCI 30  
#KITTITAS 3S N/A 36 32 85 CALM 30.43R  
#THORP 6N N/A 38 30 73 W25G50 30.40R WCI 27  

 
 
WAZ027-061910-  
YAKIMA VALLEY  
 
CITY SKY/WX TMP DP RH WIND PRES REMARKS
 
SUNNYSIDE AP CLOUDY 43 34 70 E5 30.43R  
YAKIMA AIRPORT MOCLDY 46 28 49 N7 30.40R  
6HR MIN TEMP: 33; 6HR MAX TEMP: 47;  
 
YAKIMA-VAGABOND SUNNY 41 29 62 E10 30.38R  
6HR MIN TEMP: 38; 6HR MAX TEMP: 44;  
 
#DONALD 2NE N/A 47 21 35 E5 29.24R  
#GRANDVIEW N/A 44 34 68 E1 30.46R  
#MABTON N/A 47 36 65 S1 30.41R  
#MOXEE 2E N/A 46 20 35 E7 30.33R  
#NACHES 2SW N/A 43 30 60 CALM 30.30S  
#OUTLOOK DOT N/A N/A N/A N/A E12 N/A  
#SELAH 8E N/A 40 28 62 N2 N/A  
#TERRACE HTS N/A 45 32 60 CALM 30.40R  
#TOPPENISH N/A 43 35 73 CALM 30.35R  
#WEST VALLEY N/A 45 28 51 E1 30.41R  
#W YAKIMA N/A 44 31 60 NE2 30.44R  
#WHITE SWAN 5E N/A 44 36 73 NE7 30.42R  
#WILEY CITY 3W N/A 41 26 55 CALM 30.35R  

 
 
WAZ028-061910-  
LOWER COLUMBIA BASIN...WASHINGTON  
 
CITY SKY/WX TMP DP RH WIND PRES REMARKS
 
HANFORD CLOUDY 44 32 62 S5 30.42R  
6HR MIN TEMP: 38; 6HR MAX TEMP: 45;  
 
PASCO CLOUDY 47 33 58 SW13 30.45R WCI 41  
6HR MIN TEMP: 43; 6HR MAX TEMP: 47;  
 
PROSSER AWOS N/A 46 34 63 E2 30.46R  
RICHLAND AWOS CLOUDY 47 36 65 SW8 30.45R  
#BENTON CITY N/A 43 36 76 SW9 30.34R  
#CONNELL 5N N/A 39 35 85 SW3 30.42R  
#ELTOPIA 6NW N/A 42 37 82 CALM 29.38R  
#KAHLOTUS N/A 41 35 79 W21G28 30.41R WCI 32  
#KENNEWICK 3S N/A 44 36 73 N8 30.43R  
#PATERSON N/A 45 37 73 W9 30.43R  
#PROSSER N/A 43 33 67 S10 30.41R  
#SAGEMOOR 2W N/A 43 38 82 SW6 30.28R  
#TOUCHET 2S N/A 48 35 60 SW13 30.42R WCI 43  
#WEST PASCO N/A 47 37 68 SW2 30.46R  

 
 
WAZ029-061910-  
FOOTHILLS OF THE BLUES...WASHINGTON  
 
CITY SKY/WX TMP DP RH WIND PRES REMARKS
 
WALLA WALLA AP CLOUDY 46 31 56 SW15 30.44R WCI 40  
6HR MIN TEMP: 42; 6HR MAX TEMP: 46;  
 
#CLYDE 6NW N/A 42 35 76 SW10 30.43R  
#DAYTON SCHOOL N/A 43 27 53 SW5 30.42R  
#LOWDEN 2SE N/A 48 36 63 W10 30.42R  
#PLEASANT VIEW 1N/A 39 35 85 S9 30.47R  
#PRESCOTT N/A 43 36 76 CALM 30.45R  
#WHITMAN COLLEGEN/A 47 33 58 SW3 30.50R  
#WAITSBURG 5S N/A 42 33 70 S9 30.53S  
#WAITSBURG 8N N/A 41 15 34 S10 30.27S  
#WALLA WALLA 5E N/A 47 34 60 SW13 N/A WCI 41  
#WALLA WALLA U N/A 48 33 56 SW7 30.45R  
#WHITMAN MISSIONN/A 48 35 60 SW9 30.46R  

 
 
WAZ030-061910-  
BLUE MOUNTAINS...WASHINGTON  
 
CITY SKY/WX TMP DP RH WIND PRES REMARKS
 
#DIXIE 5SE N/A 38 28 67 SW13 30.32R WCI 30  
#SKI BLUEWOOD N/A 31 24 75 N3 30.32R  

 
 
ORZ009-041-WAZ024-061910-  
COLUMBIA RIVER GORGE  
 
CITY SKY/WX TMP DP RH WIND PRES REMARKS
 
HOOD RIVER AP PTCLDY 50 34 54 W8 30.45R  
THE DALLES AP PTCLDY 51 35 54 N3 30.45R  
6HR MIN TEMP: 44; 6HR MAX TEMP: 52;  
 
#ARLINGTON AIRPON/A 46 36 68 NW5 30.48R  
#ARLINGTON HS N/A 48 35 60 S1 30.37R  
#LYLE N/A 49 41 74 NW10 30.46R  
#MARYHILL 2W N/A 47 39 74 E5 N/A  
#MOSIER 1S N/A 48 27 44 CALM 30.43R  
 

 
 
ORZ510-061910-  
NORTH CENTRAL OREGON  
 
CITY SKY/WX TMP DP RH WIND PRES REMARKS
 
#CHENOWITH 1W N/A 43 33 67 W6 N/A  
#DUFUR 9E N/A 41 30 65 W1 30.48R  
#GRASS VALLEY 1SN/A 40 33 76 W10 30.47R  
#MAUPIN SCHOOL N/A 49 31 50 W6 30.45R  
#MORO SCHOOL N/A 42 37 82 S2 30.42R  
#SHANIKO 4NW N/A 37 21 52 W7 30.37R  
#TYGH VALLEY 2NEN/A 44 34 68 CALM 30.45R  
#WAPANITIA AIRPON/A 44 30 58 W8 30.45R  
#WASCO 5NE N/A 43 35 73 SW7 30.44R  

 
 
ORZ511-061910-  
CENTRAL OREGON  
 
CITY SKY/WX TMP DP RH WIND PRES REMARKS
 
BEND AIRPORT PTCLDY 45 34 65 NE8 30.40R  
PRINEVILLE AP PTCLDY 45 34 65 CALM 30.41R  
REDMOND AIRPORT PTCLDY 45 34 65 NE3 30.39R  
6HR MIN TEMP: 29; 6HR MAX TEMP: 45;  
 
#ASHWOOD SCHOOL N/A 42 35 76 CALM 30.34S  
#BEND 6E N/A 45 31 58 CALM 30.38S  
#BEND 1SW N/A 46 36 68 SW1 N/A  
#BEND-KIM LN N/A 46 33 60 SW5 30.35R  
#LAKE BILLY CHINN/A 47 N/A N/A NE3 30.45S  
#MADRAS N/A 45 30 55 E2 N/A  
#POWELL BUTTE 3EN/A 40 35 82 E2 N/A  
#PRINEVILLE 3N N/A 39 35 85 CALM 30.44R  
#WARM SPRINGS N/A 40 34 79 CALM 30.38S  
 

 
 
 
ORZ509-061910-  
EAST SLOPES OF OREGON CASCADES  
 
CITY SKY/WX TMP DP RH WIND PRES REMARKS
 
SISTERS AWOS N/A 43 36 76 CALM 30.32R  
#BLACK BUTTE RNCN/A 43 38 82 CALM 30.42R  
#CAMP SHERMAN N/A 42 34 73 CALM 30.50R  
#LA PINE 4NW N/A 42 35 76 SW1 30.46R  
#SISTERS AIRPOR N/A 42 39 89 CALM 30.17S  
#SISTERS ODOT N/A 41 N/A N/A E2 N/A  
#SISTERS 3N N/A 46 34 63 CALM 30.35S  
#SUNRIVER N/A 43 37 79 SW1 30.44R  
#SUTTLE LK DOT N/A 36 34 92 W33G76 N/A WCI 22  
#TUMALO 3W N/A 40 35 82 CALM 30.29R  
 

 
 
ORZ044-061910-  
LOWER COLUMBIA BASIN...OREGON  
 
CITY SKY/WX TMP DP RH WIND PRES REMARKS
 
HERMISTON CLOUDY 49 33 54 SW16 30.44R WCI 43  
6HR MIN TEMP: 40; 6HR MAX TEMP: 49;  
 
#BOARDMAN SCHOOLN/A 49 36 61 SW10 30.45R  
#BOARDMAN 8SW N/A 48 37 65 SW12 30.45R WCI 43  
#ECHO 8SW N/A 48 32 54 SW15 30.45R WCI 42  
#IONE SCHOOL N/A 44 26 49 CALM 30.40S  
#IRRIGON 4NW N/A 48 36 63 S15 N/A WCI 42  
#UMATILLA SCHOOLN/A 46 39 76 N2 30.43R  
#UMATILLA N/A 48 33 56 SW5 30.39R  

 
 
ORZ507-061910-  
NORTHERN FOOTHILLS OF THE BLUES  
 
CITY SKY/WX TMP DP RH WIND PRES REMARKS
 
PENDLETON AIRPT CLOUDY 44 32 62 SW3 30.43R  
6HR MIN TEMP: 38; 6HR MAX TEMP: 44;  
 
#ADAMS 3WNW N/A 43 35 73 S3 30.46R  
#CAYUSE N/A 45 34 65 CALM 30.45R  
#HELIX SCHOOL N/A 42 34 73 N7 30.46R  
#HELIX 3N N/A 41 34 76 SW13 30.37R WCI 34  
#HELIX 6SW N/A 43 34 70 SW9 30.41R  
#HOLDMAN 5SE N/A 43 40 89 CALM 30.33S  
#HOLDMAN 6E N/A 42 33 70 N13 30.25S WCI 35  
#M-F GROVE ELEM N/A 47 30 51 S5 30.41R  
#M-FREEWATER 5SEN/A 46 32 58 SW7 30.42R  
#PDT AQUATIC CTRN/A 45 32 60 CALM 30.43S  
#PDT SUNRIDGE N/A 44 37 76 S2 30.46R  
#PENDLETON 7NW N/A 44 33 65 SW7 26.60S  
#PILOT ROCK N/A 45 32 60 CALM 30.43R  
#TUTUILLA N/A 46 37 71 CALM 30.45R  
#UMAPINE 2E N/A 48 35 60 SW2 30.42R  
#WESTON SCHOOL N/A 43 29 57 W2 30.39R  
 

 
 
ORZ508-061910-  
SOUTHERN FOOTHILLS OF THE BLUES  
 
CITY SKY/WX TMP DP RH WIND PRES REMARKS
 
LEXINGTON MOCLDY 46 30 53 S6 30.48R  
#CONDON SCHOOL N/A 39 30 70 W10 30.32S  
#CONDON 5W N/A 36 25 64 W10 30.35S  
#FOSSIL SCHOOL N/A 39 34 82 CALM 30.32S  
#HEPPNER EOC N/A 41 34 76 CALM 30.38R  
#HEPPNER 4NE N/A 40 29 64 S1 30.42R  
#LEXINGTON 2SE N/A 45 35 68 SE5 30.41R  
#MIKKALO N/A 43 32 65 SE7 30.50R  
#OLEX 4N N/A 45 36 70 S6 30.40R  
#RUGGS 5NE N/A 41 27 57 W5 30.55S  
#RUGGS 2SW N/A 38 31 76 E3 30.45R  
 

 
 
ORZ502-503-061910-  
BLUE MOUNTAINS  
 
CITY SKY/WX TMP DP RH WIND PRES REMARKS
 
MEACHAM CLOUDY 37 27 67 CALM 30.39R  
6HR MIN TEMP: 33; 6HR MAX TEMP: 37;  
 
#HEPPNER 15SE N/A 36 28 72 N5 30.30R  
#LONG CREEK HS N/A 42 36 79 CALM N/A  
#PIKES PEAK N/A 35 26 69 SW22G29 27.99S WCI 23  
#TOLLGATE N/A 28 27 96 S5 30.17R  
#TROY SCHOOL N/A 47 31 53 S6 30.30R  
#UKIAH N/A 39 35 85 CALM 30.38R  
#WESTON 4E N/A 37 30 75 S3 30.44R  

 
 
ORZ505-061910-  
JOHN DAY BASIN  
 
CITY SKY/WX TMP DP RH WIND PRES REMARKS
 
JOHN DAY CLOUDY 47 33 58 W6 30.38R  
#MITCHELL N/A 41 37 86 CALM 30.54R  
#MITCHELL 8NW N/A 40 32 73 E1 30.61R  
#MONUMENT HS N/A 39 31 73 CALM 30.32R  
#MT. VERNON 5SE N/A 44 33 65 NW1 30.33R  
#SPRAY SCHOOL N/A 44 N/A N/A CALM N/A  
#WINLOCK N/A 46 31 56 E5 30.33R  

 
 
ORZ506-061910-  
OCHOCO AND JOHN DAY HIGHLANDS  
 
CITY SKY/WX TMP DP RH WIND PRES REMARKS
 
#KEYES SMT DOT N/A 40 33 76 SW22G29 N/A WCI 30  
#PAULINA SCHOOL N/A 41 33 73 CALM 30.32R  
#PINE MTN OBS N/A 36 30 79 S3 N/A  
#PRAIRIE CITY N/A 38 31 76 CALM 30.35R  
#SENECA N/A 30 N/A N/A CALM N/A  
#SENECA 9NW N/A 31 26 81 CALM 30.49S  

 
 
ORZ049-061910-  
GRANDE RONDE VALLEY  
 
CITY SKY/WX TMP DP RH WIND PRES REMARKS
 
LA GRANDE CLOUDY 39 27 62 S8 30.43R  
#COVE N/A 41 35 79 CALM 30.42R  
#COVE SCHOOL N/A 41 33 73 CALM 30.40R  
#COVE 6NW N/A 38 31 76 SE1 30.33R  
#ELGIN 3N N/A 42 30 62 S5 30.37R  
#ELGIN 1E N/A 41 33 73 CALM N/A  
#IMBLER SCHOOL N/A 40 32 73 SE13 30.35R WCI 32  
#ISLAND CITY 4N N/A 41 41 100 CALM 30.50R  
#UNION 1S N/A 38 31 76 SE7 30.42R  

 
 
ORZ050-061910-  
WALLOWA COUNTY  
 
CITY SKY/WX TMP DP RH WIND PRES REMARKS
 
JOSEPH AIRPORT MOCLDY 36 30 79 E3 30.40R  
#ENTERPRISE AP N/A 36 30 79 CALM 30.29R  
#ENTERPRISE HS N/A 37 33 85 CALM 30.37R  
#IMNAHA SCHOOL N/A 46 30 53 S7 30.40R  
#IMNAHA 10S N/A 41 29 62 SW2 30.38R  
#JOSEPH 3N N/A 35 29 78 CALM 30.37R  
#JOSEPH 3W N/A 36 26 67 CALM 30.18R  
#LOSTINE N/A 36 31 82 CALM 30.31R  
#MT HOWARD 8000 N/A 24 19 81 W7 30.26R  
#PROMISE 1S N/A 37 25 61 SE7 30.56R  
#WALLOWA SCHOOL N/A 40 30 67 CALM 30.35R  
 

 
 
CLICK HERE TO GO TO PREVIOUS BULLETINS.

The Nexlab OR Page
The Nexlab WA Page Main Text Page